Location: Unspecified
(35.9148°N, 0.0000°E)
Time: 10:49:37
(UTC+00:00)

OTV 5 (USA 277) - Pass Details

Date: 05 June 2019
Orbit: 310 x 325 km, 54.5° (Epoch: 08 May)

Event Time Altitude Azimuth Distance (km) Brightness Sun altitude
Exits shadow 03:11:51 51° 193° (SSW) 412 ? -15.8°
Maximum altitude 03:12:21 69° 132° (SE) 349 ? -15.7°
Drops below altitude 10° 03:15:05 10° 49° (NE) 1,238 ? -15.3°
Sets 03:17:04 0° 46° (NE) 2,072 ? -15.1°
